Flag for Turkey Weather past 2 weeks in Istanbul, Turkey

Now
70 °F

Scattered clouds.


Feels Like: 70 °F
Forecast: 62 / 69 °F
Wind: 7 mph from North

Location: Istanbul Ataturk Airport

Current Time: Oct 23, 2014 at 9:49:15 AM

Latest Report: Oct 23, 2014 at 8:50 AM


Visibility: N/A

Pressure: 29.71 "Hg

Humidity: 60%

Dew point: 55 °F

Location of IstanbulLocation

Historic Weather in Istanbul — Graph

°F

Istanbul temperature yesterday

Maximum temperature yesterday: 72 °F (at 2:20 PM)
Minimum temperature yesterday: 59 °F (at 12:20 AM)
Average temperature yesterday: 66 °F

Past Weeks' High & Low Weather Summary

 TemperatureHumidityPressure
High73 °F (Oct 16, 5:20 PM)94% (Oct 13, 6:50 AM)30.36 "Hg (Oct 13, 6:50 AM)
Low48 °F (Oct 20, 6:20 AM)45% (Oct 19, 1:50 PM)29.68 "Hg (Oct 23, 4:50 AM)
Average64 °F71%30.05 "Hg
* Reported Oct 8 8:20 AM — Oct 23 8:20 AM, Istanbul, Weather by CustomWeather, © 2014

Note: Actual official high and low records may vary slightly from our data, if they occured in-between our weather recording intervals... More about our weather records

Advertising

Istanbul weather history for previous 24 hours

 ConditionsComfort  
Time TempWeatherWind HumidityBarometerVisibility
8:20 AM
Oct 23
70 °FPassing clouds.5 mph60%29.68 "HgN/A
7:50 AM66 °FPassing clouds.7 mph68%29.68 "HgN/A
7:20 AM70 °FPassing clouds.9 mph57%29.68 "HgN/A
6:50 AM68 °FPassing clouds.9 mph60%29.68 "HgN/A
6:20 AM68 °FPassing clouds.9 mph69%29.68 "HgN/A
5:50 AM66 °FPassing clouds.8 mph73%29.68 "HgN/A
5:20 AM68 °FPassing clouds.7 mph69%29.68 "HgN/A
4:50 AM68 °FPassing clouds.12 mph69%29.68 "HgN/A
4:20 AM68 °FPassing clouds.9 mph64%29.71 "HgN/A
3:50 AM66 °FPartly cloudy.7 mph73%29.71 "HgN/A
3:20 AM66 °FPartly cloudy.10 mph68%29.71 "HgN/A
2:50 AM68 °FPartly cloudy.9 mph69%29.71 "HgN/A
2:20 AM70 °FPassing clouds.16 mph60%29.74 "HgN/A
1:50 AM70 °FPassing clouds.15 mph60%29.74 "HgN/A
1:20 AM68 °FPassing clouds.14 mph64%29.74 "HgN/A
12:50 AM70 °FPassing clouds.14 mph60%29.74 "HgN/A
12:20 AM70 °FPassing clouds.16 mph60%29.74 "HgN/A
11:50 PM
Oct 22
68 °FClear.9 mph69%29.74 "Hg10 mi
11:20 PM70 °FClear.12 mph60%29.74 "Hg10 mi
10:50 PM70 °FClear.10 mph60%29.74 "Hg10 mi
10:20 PM68 °FClear.7 mph73%29.74 "Hg10 mi
9:50 PM70 °FClear.10 mph60%29.74 "Hg10 mi
9:20 PM70 °FPassing clouds.10 mph60%29.71 "HgN/A
8:50 PM68 °FClear.9 mph69%29.74 "Hg10 mi
8:20 PM70 °FClear.14 mph60%29.74 "Hg10 mi
7:50 PM70 °FClear.12 mph60%29.74 "Hg10 mi
7:20 PM70 °FClear.10 mph57%29.74 "Hg10 mi
6:50 PM68 °FSunny.7 mph60%29.74 "Hg10 mi
6:20 PM70 °FPassing clouds.10 mph53%29.74 "HgN/A
5:50 PM68 °FPassing clouds.7 mph56%29.74 "HgN/A
5:20 PM70 °FSunny.8 mph50%29.74 "Hg10 mi
4:50 PM68 °FPassing clouds.8 mph60%29.77 "HgN/A
4:20 PM70 °FSunny.9 mph60%29.77 "Hg10 mi
3:50 PM72 °FSunny.14 mph53%29.77 "Hg10 mi
3:20 PM72 °FSunny.14 mph53%29.77 "Hg10 mi
2:50 PM72 °FPassing clouds.12 mph47%29.77 "HgN/A
2:20 PM72 °FSunny.13 mph50%29.80 "Hg10 mi
1:50 PM70 °FSunny.12 mph50%29.80 "Hg10 mi
1:20 PM70 °FSunny.12 mph53%29.83 "Hg10 mi
12:50 PM68 °FSunny.10 mph60%29.83 "Hg10 mi
12:20 PM68 °FSunny.13 mph56%29.86 "Hg10 mi
11:50 AM68 °FSunny.15 mph53%29.86 "Hg10 mi
11:20 AM66 °FSunny.14 mph64%29.86 "Hg10 mi
10:50 AM66 °FSunny.12 mph68%29.86 "Hg10 mi
10:20 AM68 °FSunny.13 mph56%29.86 "Hg10 mi
9:50 AM66 °FSunny.10 mph56%29.83 "Hg10 mi
9:20 AM66 °FPassing clouds.8 mph64%29.83 "HgN/A
Weather by CustomWeather, © 2014

See weather overviewHow to use our weather pages